Powrót do katalogu

STARLINK-33710

AktywnyŁącznośćVLEO
NORAD 63434·PAYLOAD·🇺🇸 United States

Wystrzelony Apr 4, 2025 z Vandenberg Space Force Base

Loading…

Następne Przeloty (najbliższe 24 godziny)

TLE

ŚwieżeSource: CelesTrak SupGP

Epoka: Sep 14, 2026, 21:42 UTC

1 63434C 25069B   26257.90465278 -.00008500  00000+0 -25126-3 0  2575
2 63434  53.1600 334.2110 0001319  86.9625   9.0145 15.34380094    18

Śledź STARLINK-33710 w czasie rzeczywistym z AllMySat

Download on the App Store